Tracking 23611 objects as of 18-Sep-2021
HD Live streaming from Space Station
objects crossing your sky now
Track INSPIRATION-4

HELLAS-SAT 2

Track HELLAS-SAT 2 now!
HELLAS-SAT 2 is classified as:


NORAD ID: 27811
Int'l Code: 2003-020A
Perigee: 35,774.2 km
Apogee: 35,812.5 km
Inclination: 3.0 °
Period: 1,436.1 minutes
Semi major axis: 42164 km
RCS: 15.8489 m2 (large)
Launch date: May 13, 2003
Source: Greece (GREC)
Launch site: AIR FORCE EASTERN TEST RANGE (AFETR)

30 Ku-band; television broadcasting services for the 2004 Summer Olympic Games in Athens.
aabbcc
Your satellite tracking list
Your tracking list is empty




NASA's NSSDC Master Catalog

Two Line Element Set (TLE):
1 27811U 03020A   21261.49023916 -.00000173  00000-0  00000-0 0  9992
2 27811   3.0116  87.4390 0004536  82.4706 268.9883  1.00273242 25460
Source of the keplerian elements: AFSPC